TimeCST,TemperatureF,Dew PointF,Humidity,Sea Level PressureIn,VisibilityMPH,Wind Direction,Wind SpeedMPH,Gust SpeedMPH,PrecipitationIn,Events,Conditions,WindDirDegrees,DateUTC
12:54 AM,37.9,35.1,89,30.34,10.0,Calm,Calm,-,N/A,,Clear,0,2012-11-18 06:54:00
1:54 AM,37.9,35.1,89,30.33,9.0,Calm,Calm,-,N/A,,Clear,0,2012-11-18 07:54:00
2:54 AM,37.0,34.0,89,30.33,8.0,Calm,Calm,-,N/A,,Clear,0,2012-11-18 08:54:00
3:54 AM,36.0,34.0,93,30.33,9.0,Calm,Calm,-,N/A,,Clear,0,2012-11-18 09:54:00
4:54 AM,41.0,35.1,79,30.33,10.0,Calm,Calm,-,N/A,,Clear,0,2012-11-18 10:54:00
5:54 AM,35.1,32.0,89,30.34,9.0,Calm,Calm,-,N/A,,Clear,0,2012-11-18 11:54:00
6:54 AM,34.0,32.0,92,30.36,6.0,Calm,Calm,-,N/A,,Clear,0,2012-11-18 12:54:00
7:54 AM,42.8,37.4,81,30.37,9.0,Calm,Calm,-,N/A,,Clear,0,2012-11-18 13:54:00
8:54 AM,52.0,39.9,63,30.38,10.0,East,5.8,-,N/A,,Clear,80,2012-11-18 14:54:00
9:54 AM,59.0,36.0,42,30.37,10.0,Variable,5.8,-,N/A,,Clear,0,2012-11-18 15:54:00
10:54 AM,61.0,35.1,38,30.36,10.0,ENE,6.9,-,N/A,,Clear,60,2012-11-18 16:54:00
11:54 AM,64.0,35.1,34,30.34,10.0,ENE,6.9,-,N/A,,Clear,70,2012-11-18 17:54:00
12:54 PM,66.0,37.0,34,30.30,10.0,NNE,9.2,-,N/A,,Clear,20,2012-11-18 18:54:00
1:54 PM,66.0,36.0,33,30.28,10.0,North,10.4,-,N/A,,Clear,360,2012-11-18 19:54:00
2:54 PM,66.0,36.0,33,30.28,10.0,North,5.8,-,N/A,,Clear,360,2012-11-18 20:54:00
3:54 PM,64.9,36.0,34,30.28,10.0,ENE,5.8,-,N/A,,Clear,60,2012-11-18 21:54:00
4:54 PM,57.9,42.1,56,30.29,10.0,NE,3.5,-,N/A,,Clear,40,2012-11-18 22:54:00
5:54 PM,48.9,41.0,74,30.30,10.0,Calm,Calm,-,N/A,,Clear,0,2012-11-18 23:54:00
6:54 PM,48.0,39.9,74,30.30,10.0,Calm,Calm,-,N/A,,Clear,0,2012-11-19 00:54:00
7:54 PM,46.0,39.0,76,30.32,10.0,Calm,Calm,-,N/A,,Clear,0,2012-11-19 01:54:00
8:54 PM,43.0,37.9,82,30.32,10.0,Calm,Calm,-,N/A,,Clear,0,2012-11-19 02:54:00
9:54 PM,41.0,37.9,89,30.32,10.0,Calm,Calm,-,N/A,,Clear,0,2012-11-19 03:54:00
10:54 PM,41.0,37.4,87,30.31,10.0,Calm,Calm,-,N/A,,Clear,0,2012-11-19 04:54:00
11:54 PM,39.0,37.0,93,30.32,10.0,Calm,Calm,-,N/A,,Clear,0,2012-11-19 05:54:00